User: anonymous   Login
Location: Unspecified
(0.0000°N, 0.0000°E)
Time: 01:43:49
(UTC+00:00)
Language:

WGS F4 (USA 233) - Orbit

View from above orbital plane
View from above orbital plane
View from above satellite
View from above satellite

Ground track
Ground track

The orbit data is extracted from the following two-line orbital elements,

1 38070U 12003A   20053.52618924 -.00000231  00000-0  00000+0 0  9997
2 38070   0.0173 113.1506 0000180 339.2130 337.3167  1.00272027 29594
Epoch (UTC): 22 February 2020 12:37:42
Eccentricity: 0.0000180
inclination: 0.0173°
perigee height: 35785 km
apogee height: 35787 km
right ascension of ascending node: 113.1506°
argument of perigee: 339.2130°
revolutions per day: 1.00272027
mean anomaly at epoch: 337.3167°
orbit number at epoch: 2959

The dashed part of the orbit path shows where the satellite is in the earth's shadow,  

DLR